• Join FlightAware (Why Join?)
  • Login
  • US Flag 
01:59AM EDT


 

Airport Tracker/Info


-or-


 

Live Flight TrackerFlight Track Log ✈ N299A ✈ 03-Aug-2013 ✈ KOKK - KHAO

Flight Track Log - Related Links

Times and Time Zones

All times are in EDT time to prevent confusion due to time zone crossing. See the N299A flight status page for this flight to view local times or setup timezone preferences in your user account.

Time Position Orientation Groundspeed Altitude Reporting Facility
EDT Latitude Longitude Course Direction KTS MPH feet Rate Location/Type
02:03PM 40.5553 -85.7475 131° Southeast 158 182 2,800  Level Chicago Center
02:04PM 40.5272 -85.7050 131° Southeast 157 181 2,700  Descending Chicago Center
02:05PM 40.4944 -85.6664 138° Southeast 155 178 2,800  Climbing Chicago Center
02:06PM 40.4600 -85.6300 141° Southeast 156 180 2,700 -60 Descending Chicago Center
02:07PM 40.4253 -85.5911 140° Southeast 158 182 2,700  Level Chicago Center
02:08PM 40.3928 -85.5547 140° Southeast 158 182 2,700  Level Chicago Center
02:09PM 40.3536 -85.5083 138° Southeast 157 181 2,700  Level Indianapolis Center
02:10PM 40.3208 -85.4708 139° Southeast 157 181 2,700  Level Indianapolis Center
02:11PM 40.2889 -85.4339 139° Southeast 156 180 2,800 60 Climbing Indianapolis Center
02:13PM 40.2561 -85.3967 139° Southeast 156 180 2,900 60 Climbing Indianapolis Center
02:14PM 40.2239 -85.3608 140° Southeast 155 178 3,000  Climbing Indianapolis Center
02:15PM 40.1889 -85.3186 137° Southeast 155 178 2,900  Descending Indianapolis Center
02:15PM 40.1658 -85.3003 149° Southeast 164 189 3,000  Climbing Indianapolis Center
02:16PM 40.1261 -85.2622 144° Southeast 152 175 3,000  Level Indianapolis Center
02:17PM 40.0919 -85.2283 143° Southeast 157 181 3,000  Level Indianapolis Center
02:18PM 40.0542 -85.1908 143° Southeast 158 182 3,000  Level Indianapolis Center
02:19PM 40.0228 -85.1517 136° Southeast 158 182 3,100  Climbing Indianapolis Center
02:20PM 39.9914 -85.1128 136° Southeast 151 174 3,000 -60 Descending Indianapolis Center
02:21PM 39.9600 -85.0739 136° Southeast 158 182 3,000  Level Indianapolis Center
02:22PM 39.9286 -85.0350 136° Southeast 157 181 3,000  Level Indianapolis Center
02:23PM 39.8914 -84.9925 139° Southeast 160 184 3,000  Level Indianapolis Center
02:24PM 39.8575 -84.9558 140° Southeast 161 185 3,000  Level Indianapolis Center
02:25PM 39.8261 -84.9172 137° Southeast 158 182 3,000  Level Indianapolis Center
02:26PM 39.7922 -84.8808 140° Southeast 158 182 3,100 60 Climbing Indianapolis Center
02:27PM 39.7583 -84.8444 140° Southeast 161 185 3,200 -120 Climbing Indianapolis Center
02:29PM 39.6833 -84.7833 148° Southeast 169 194 2,900 -180 Descending Cincinnati TRACON
02:30PM 39.6500 -84.7500 142° Southeast 170 196 2,700 -240 Descending Cincinnati TRACON
02:31PM 39.6000 -84.7167 153° Southeast 174 200 2,500 -180 Descending Cincinnati TRACON
02:32PM 39.5667 -84.6833 142° Southeast 164 189 2,400 -180 Descending Cincinnati TRACON
02:33PM 39.5333 -84.6500 142° Southeast 164 189 2,200 -60 Descending Cincinnati TRACON
02:34PM 39.4833 -84.6167 153° Southeast 165 190 2,300  Climbing Cincinnati TRACON
02:35PM 39.4500 -84.5833 142° Southeast 157 181 2,300  Level Cincinnati TRACON